[[{"header":{"parameterUnit":"m.s-1","parameterCategory":1,"la1":30.2991,"la2":30.254,"lo1":-89.0895,"lo2":-89.0444,"dx":0.0017,"dy":0.0017,"nx":28,"ny":28,"refTime":"2023-01-30T15:00:00:Z","depth":0,"parameterNumber":2,"parameterNumberName":"U-component_of_WINDS"},"data":[0,0,0,0,0,0,0,0,0,0,0,0,0,0,0,0,0,0,0,0,0,0,0,0,0,0,0,0,0,0,0,0,0,0,0,0,0,0,0,0,0,0,0,0,0,0,0,0,0,0,0,0,0,0,0,0,0,0,-0.6941,-0.6941,0,-0.6963,-0.6963,-0.6963,-0.6954,-0.6954,-0.6953,-0.6953,-0.6978,-0.6979,-0.6981,0,0,0,0,0,0,0,0,0,0,0,0,0,-0.6897,-0.6897,-0.6941,-0.6941,-0.6942,-0.6963,-0.6963,-0.6963,-0.6955,-0.6954,-0.6953,-0.6953,-0.6978,-0.6979,-0.6981,0,0,0,0,0,0,0,0,0,0,0,0,0,-0.6917,-0.6898,-0.6941,-0.694,-0.694,-0.6962,-0.6963,-0.6963,-0.6955,-0.6954,-0.6953,-0.6952,-0.6977,-0.6979,-0.6981,-0.7007,0,0,-0.6986,-0.6987,0,0,0,0,0,0,0,0,-0.6916,-0.6919,-0.694,-0.694,-0.694,-0.6955,-0.6956,-0.6978,-0.6955,-0.6949,-0.6953,-0.6952,-0.6971,-0.6974,-0.6979,-0.7008,-0.7009,-0.6986,-0.6987,-0.6988,-0.6989,0,0,0,0,0,0,0,-0.6914,-0.6918,-0.695,-0.694,-0.694,-0.6939,-0.6941,-0.696,-0.6964,-0.695,-0.6949,-0.6951,-0.6971,-0.6978,-0.698,-0.701,-0.6986,-0.6988,-0.6989,-0.6989,-0.7062,-0.7063,0,0,0,0,0,0,-0.6912,-0.6916,-0.6949,-0.695,-0.6926,-0.6941,-0.6943,-0.6951,-0.6964,-0.6965,-0.6952,-0.6951,-0.6975,-0.6978,-0.6981,-0.7013,-0.6988,-0.699,-0.6991,-0.7061,-0.7063,-0.7064,0,0,0,0,0,0,-0.6911,-0.6915,-0.6948,-0.6933,-0.6937,-0.6942,-0.6951,-0.6952,-0.6958,-0.6966,-0.6967,-0.6958,-0.6975,-0.6978,-0.7001,-0.7014,-0.699,-0.6992,-0.706,-0.7062,-0.7063,-0.7077,0,0,0,0,0,0,-0.691,-0.6915,-0.6924,-0.6933,-0.6938,-0.6966,-0.6952,-0.6953,-0.6961,-0.696,-0.6971,-0.6973,-0.6974,-0.6998,-0.7002,-0.7015,-0.6993,-0.7059,-0.7061,-0.7063,-0.7075,-0.7078,-0.7081,0,0,0,0,0,-0.6909,-0.6928,-0.6924,-0.6928,-0.6949,-0.6967,-0.697,-0.697,-0.6962,-0.6972,-0.6977,-0.6972,-0.7011,-0.7,-0.7005,-0.7019,-0.7058,-0.7061,-0.7062,-0.7074,-0.7078,-0.7081,0,0,0,0,0,0,-0.692,-0.6929,-0.6925,-0.6948,-0.6957,-0.6966,-0.6978,-0.6974,-0.6987,-0.6985,-0.6986,-0.6989,-0.7012,-0.7018,-0.7005,-0.7046,-0.7034,-0.7037,-0.7041,-0.7045,-0.7048,-0.7046,-0.6995,0,0,0,0,0,-0.6925,-0.6938,-0.6945,-0.6964,-0.6969,-0.6973,-0.698,-0.698,-0.699,-0.6994,-0.7001,-0.7011,-0.7026,-0.7036,-0.705,-0.7076,-0.7079,-0.7088,-0.7091,-0.7094,-0.7096,-0.7112,-0.7116,-0.707,-0.707,-0.707,0,0,-0.6936,-0.6942,-0.695,-0.6967,-0.6974,-0.6988,-0.6976,-0.6991,-0.7002,-0.6996,-0.7017,-0.7023,-0.7035,-0.706,-0.7071,-0.7065,-0.711,-0.7096,-0.7098,-0.7099,-0.7114,-0.7119,-0.7122,-0.7072,-0.7071,-0.7071,0,0,-0.6963,-0.6969,-0.6985,-0.6993,-0.7003,-0.7005,-0.7009,-0.7019,-0.7022,-0.7043,-0.704,-0.7054,-0.7079,-0.7088,-0.7096,-0.7127,-0.7124,-0.7132,-0.7147,-0.7162,-0.7166,-0.7169,-0.7181,-0.7185,-0.7134,-0.7134,-0.7135,0,-0.6976,-0.6996,-0.6995,-0.701,-0.7018,-0.7013,-0.7031,-0.7038,-0.7053,-0.7059,-0.7052,-0.7084,-0.7092,-0.7119,-0.7127,-0.7133,-0.7139,-0.713,-0.7165,-0.7169,-0.7172,-0.7183,-0.7187,-0.7135,-0.7135,-0.7135,-0.7135,0,-0.7011,-0.7025,-0.7037,-0.7051,-0.706,-0.7077,-0.708,-0.709,-0.7089,-0.7093,-0.7115,-0.7124,-0.714,-0.7147,-0.7146,-0.7174,-0.7171,-0.7165,-0.7153,-0.7177,-0.7188,-0.7192,-0.7137,-0.7136,-0.7136,-0.7136,0,0,-0.7045,-0.7058,-0.7063,-0.7069,-0.708,-0.7092,-0.7109,-0.7124,-0.7133,-0.7144,-0.7159,-0.7181,-0.7176,-0.7185,-0.7185,-0.7199,-0.7224,-0.7191,-0.7192,-0.7197,-0.7256,-0.7261,-0.7266,-0.7222,-0.7223,-0.7223,-0.7255,0,-0.7073,-0.7102,-0.7102,-0.7129,-0.7142,-0.7138,-0.7153,-0.7163,-0.7167,-0.7181,-0.7186,-0.7201,-0.7193,-0.7199,-0.7211,-0.7218,-0.7236,-0.7216,-0.7237,-0.7238,-0.7234,-0.7271,-0.7276,-0.7305,-0.726,-0.726,-0.7261,0,-0.7109,-0.712,-0.7148,-0.7158,-0.7164,-0.7177,-0.7191,-0.7204,-0.7215,-0.7218,-0.7228,-0.7227,-0.7246,-0.7234,-0.7261,-0.7248,-0.7257,-0.7262,-0.7263,-0.7265,-0.7251,-0.7274,-0.7314,-0.7319,-0.7267,-0.7267,-0.7266,0,-0.7132,-0.7154,-0.7174,-0.7179,-0.7191,-0.7201,-0.7207,-0.7217,-0.7226,-0.7239,-0.7245,-0.7261,-0.7269,-0.7282,-0.7286,-0.7277,-0.7314,-0.7302,-0.7317,-0.7317,-0.7325,-0.7325,-0.7367,-0.7331,-0.7331,-0.7331,-0.7331,0,-0.7163,-0.7181,-0.7184,-0.7196,-0.7216,-0.7217,-0.7237,-0.7242,-0.7252,-0.7266,-0.7264,-0.7278,-0.7282,-0.7297,-0.7301,-0.7323,-0.7327,-0.7331,-0.7331,-0.7331,-0.733,-0.7337,-0.7335,-0.7332,-0.7332,-0.7331,-0.7331,0,-0.7192,-0.7195,-0.7216,-0.7226,-0.7228,-0.7243,-0.7252,-0.7264,-0.7268,-0.7287,-0.7291,-0.7298,-0.7316,-0.7321,-0.7342,-0.7345,-0.7372,-0.737,-0.7367,-0.7367,-0.7383,-0.7381,-0.7431,-0.7438,-0.7397,-0.7397,-0.7398,0,-0.7212,-0.7225,-0.7236,-0.7245,-0.725,-0.7265,-0.7274,-0.7276,-0.7286,-0.73,-0.7311,-0.7328,-0.7342,-0.7371,-0.7379,-0.7396,-0.7395,-0.7411,-0.7398,-0.7397,-0.7396,-0.7395,-0.7397,-0.7414,-0.7414,-0.7415,-0.7415,0,-0.7247,-0.7248,-0.726,-0.7273,-0.7284,-0.7295,-0.7306,-0.7313,-0.7317,-0.7329,-0.7346,-0.7357,-0.7378,-0.7396,-0.7413,-0.7421,-0.7419,-0.7419,-0.7424,-0.7424,-0.7421,-0.7423,-0.7375,-0.7418,-0.7418,-0.7418,-0.7417,-0.7417,-0.7272,-0.7284,-0.7293,-0.7308,-0.7316,-0.7326,-0.7338,-0.7343,-0.7357,-0.7374,-0.7375,-0.7394,-0.7407,-0.7429,-0.7438,-0.7454,-0.7449,-0.7456,-0.7458,-0.7459,-0.7461,-0.7419,-0.7457,-0.7457,-0.7457,-0.7457,-0.7457,0,-0.7308,-0.7314,-0.7327,-0.7341,-0.7352,-0.7349,-0.736,-0.7371,-0.7387,-0.7398,-0.7411,-0.7432,-0.7449,-0.7459,-0.7476,-0.7488,-0.7487,-0.7492,-0.7492,-0.7494,-0.7464,-0.7458,-0.7492,-0.7492,-0.7492,-0.7492,-0.7492,-0.7492,-0.7328,-0.7347,-0.7349,-0.7373,-0.738,-0.7397,-0.7404,-0.7414,-0.7423,-0.7445,-0.7459,-0.7465,-0.7476,-0.7494,-0.751,-0.7513,-0.752,-0.7525,-0.7527,-0.7499,-0.7496,-0.7492,-0.7487,-0.7526,-0.7527,-0.7556,-0.7556,-0.7557]},{"header":{"parameterUnit":"m.s-1","parameterCategory":1,"la1":30.2991,"la2":30.254,"lo1":-89.0895,"lo2":-89.0444,"dx":0.0017,"dy":0.0017,"nx":28,"ny":28,"refTime":"2023-01-30T15:00:00:Z","depth":0,"parameterNumber":3,"parameterNumberName":"V-component_of_WINDS"},"data":[0,0,0,0,0,0,0,0,0,0,0,0,0,0,0,0,0,0,0,0,0,0,0,0,0,0,0,0,0,0,0,0,0,0,0,0,0,0,0,0,0,0,0,0,0,0,0,0,0,0,0,0,0,0,0,0,0,0,1.3503,1.3503,0,1.3503,1.3503,1.3503,1.3485,1.3485,1.3484,1.3484,1.3483,1.3483,1.3483,0,0,0,0,0,0,0,0,0,0,0,0,0,1.3489,1.3489,1.3503,1.3503,1.3503,1.3503,1.3503,1.3503,1.3485,1.3485,1.3484,1.3484,1.3483,1.3483,1.3484,0,0,0,0,0,0,0,0,0,0,0,0,0,1.3492,1.3489,1.3503,1.3495,1.3494,1.3503,1.3503,1.3503,1.3485,1.3485,1.3484,1.3483,1.3482,1.3483,1.3484,1.35,0,0,1.3485,1.3486,0,0,0,0,0,0,0,0,1.3492,1.3493,1.3496,1.3495,1.3494,1.3493,1.3497,1.3502,1.3486,1.3489,1.3484,1.3483,1.3487,1.3487,1.3488,1.35,1.35,1.3485,1.3486,1.3486,1.3486,0,0,0,0,0,0,0,1.3492,1.3493,1.3503,1.3496,1.3495,1.349,1.349,1.3498,1.3491,1.3488,1.3487,1.3487,1.3486,1.3488,1.3488,1.35,1.3485,1.3486,1.3486,1.3486,1.3525,1.3526,0,0,0,0,0,0,1.3493,1.3493,1.3503,1.3503,1.3492,1.3491,1.3491,1.3494,1.3491,1.349,1.3488,1.3486,1.3487,1.3487,1.3488,1.3507,1.3486,1.3487,1.3487,1.3524,1.3525,1.3526,0,0,0,0,0,0,1.3493,1.3494,1.3503,1.3498,1.3498,1.3492,1.3496,1.3495,1.3496,1.3491,1.349,1.3491,1.3487,1.3487,1.3497,1.3506,1.3487,1.3487,1.3524,1.3525,1.3526,1.3545,0,0,0,0,0,0,1.3492,1.3494,1.3501,1.3498,1.3499,1.3513,1.3497,1.3495,1.3497,1.3495,1.3493,1.3492,1.3486,1.3496,1.3498,1.3507,1.3488,1.3523,1.3524,1.3525,1.3543,1.3547,1.3549,0,0,0,0,0,1.3492,1.3507,1.3501,1.3503,1.3507,1.3513,1.3514,1.3507,1.3498,1.3504,1.3501,1.3492,1.3505,1.3498,1.3499,1.3508,1.3522,1.3524,1.3525,1.3542,1.3546,1.3549,0,0,0,0,0,0,1.3511,1.3506,1.35,1.3514,1.3514,1.351,1.3518,1.3511,1.3514,1.3512,1.3503,1.3502,1.3513,1.3512,1.3504,1.3524,1.3512,1.3514,1.3525,1.3528,1.3531,1.3531,1.3488,0,0,0,0,0,1.3517,1.3523,1.3518,1.3531,1.3531,1.3525,1.3527,1.3522,1.3521,1.3521,1.3518,1.3518,1.3522,1.3525,1.3529,1.3543,1.3542,1.355,1.3553,1.3555,1.3557,1.3564,1.3567,1.3531,1.3531,1.3531,0,0,1.3529,1.3527,1.3531,1.3534,1.3534,1.354,1.3525,1.3532,1.3536,1.3522,1.3531,1.3529,1.3529,1.3541,1.3546,1.354,1.3567,1.3557,1.3559,1.356,1.3566,1.3569,1.3572,1.3532,1.3532,1.3532,0,0,1.3554,1.3553,1.3563,1.3563,1.3562,1.3557,1.356,1.3557,1.3555,1.3564,1.3554,1.3558,1.3565,1.3565,1.3566,1.3589,1.3581,1.3591,1.3605,1.3612,1.3615,1.3617,1.3625,1.3628,1.3592,1.3592,1.3592,0,1.3569,1.3577,1.3569,1.3577,1.3578,1.3566,1.3576,1.3575,1.3576,1.3577,1.357,1.3578,1.3577,1.3588,1.3594,1.3595,1.3597,1.3591,1.3615,1.3618,1.362,1.3627,1.363,1.3593,1.3593,1.3593,1.3593,0,1.3595,1.3601,1.361,1.361,1.3612,1.3621,1.3614,1.3617,1.3611,1.3607,1.3616,1.3614,1.3616,1.3618,1.3613,1.3629,1.3625,1.3617,1.3605,1.3624,1.3631,1.3634,1.3595,1.3595,1.3594,1.3594,0,0,1.3633,1.3628,1.3631,1.3631,1.3628,1.3633,1.364,1.3642,1.3645,1.3645,1.3651,1.3657,1.3649,1.365,1.3644,1.365,1.3668,1.3641,1.3641,1.3646,1.3685,1.3691,1.3694,1.3663,1.3663,1.3664,1.3685,0,1.3656,1.3669,1.3662,1.3676,1.368,1.3668,1.3675,1.3674,1.367,1.3674,1.367,1.3674,1.3663,1.3664,1.3669,1.3665,1.3676,1.3663,1.3668,1.3668,1.3668,1.3698,1.3705,1.3725,1.3687,1.3688,1.3688,0,1.3686,1.3687,1.3701,1.3697,1.3699,1.3705,1.3706,1.3709,1.3708,1.3704,1.3705,1.3697,1.3704,1.3692,1.3701,1.3692,1.3694,1.3692,1.3692,1.3692,1.3679,1.3699,1.3731,1.3734,1.3692,1.3692,1.3692,0,1.3711,1.3716,1.3725,1.3725,1.3721,1.3725,1.3723,1.3721,1.3722,1.3723,1.3724,1.3725,1.3726,1.3727,1.372,1.3712,1.373,1.3717,1.3727,1.3727,1.3731,1.3731,1.3764,1.3732,1.3732,1.3732,1.3732,0,1.3738,1.3747,1.3736,1.3742,1.3751,1.3742,1.3752,1.3749,1.3747,1.3751,1.3741,1.3745,1.3735,1.3738,1.3733,1.374,1.3741,1.3738,1.3737,1.3739,1.3739,1.374,1.3738,1.3733,1.3733,1.3733,1.3733,0,1.3768,1.3761,1.377,1.3764,1.3763,1.377,1.3766,1.377,1.3766,1.3771,1.3772,1.3765,1.3768,1.3761,1.3763,1.3759,1.377,1.3766,1.377,1.3769,1.3779,1.3778,1.3814,1.3818,1.3784,1.3784,1.3784,0,1.3785,1.3792,1.3787,1.3789,1.3788,1.3792,1.3793,1.3784,1.3785,1.3783,1.3788,1.379,1.3792,1.3797,1.3792,1.3793,1.3789,1.3801,1.3789,1.3792,1.3789,1.3789,1.3789,1.3804,1.3804,1.3805,1.3805,0,1.3817,1.3813,1.3815,1.3816,1.3818,1.3818,1.3818,1.382,1.381,1.3813,1.3815,1.3816,1.3818,1.382,1.382,1.3818,1.381,1.3809,1.3811,1.3814,1.3816,1.3815,1.3777,1.3808,1.3808,1.3808,1.3807,1.3807,1.3841,1.3846,1.3843,1.3846,1.3844,1.3844,1.3848,1.3843,1.3846,1.3846,1.3841,1.3845,1.3842,1.3841,1.384,1.3842,1.3837,1.384,1.3841,1.3842,1.3844,1.3815,1.3842,1.3842,1.3842,1.3842,1.3842,0,1.3872,1.387,1.3872,1.3871,1.3873,1.3865,1.3864,1.3866,1.3869,1.3867,1.3869,1.3872,1.3873,1.3868,1.3869,1.3872,1.3868,1.3873,1.3872,1.3872,1.3849,1.3847,1.3876,1.3876,1.3875,1.3875,1.3875,1.3875,1.3889,1.3897,1.3892,1.3899,1.3896,1.39,1.3899,1.3899,1.3897,1.3901,1.3902,1.3898,1.3895,1.3895,1.3896,1.3895,1.3896,1.3901,1.3898,1.3877,1.3874,1.387,1.3868,1.3901,1.3901,1.3921,1.3921,1.3921]}]]